Regional Weather Roundup
Issued by NWS Charleston, SC

Home | Current Version | Previous Version | Text Only | Print | Product List | Glossary On
Versions: 1 2 3 4 5 6 7 8 9 10 11 12 13 14 15 16 17 18 19 20 21 22 23 24 25 26 27 28 29 30 31 32 33 34 35 36 37 38 39 40 41 42 43 44 45 46 47 48 49 50
000
ASUS42 KCHS 032127
RWRCHS

REGIONAL WEATHER ROUNDUP
NATIONAL WEATHER SERVICE CHARLESTON SC
500 PM EDT WED JUN 03 2015

NOTE: "FAIR" INDICATES FEW OR NO CLOUDS BELOW 12,000 FEET WITH NO
SIGNIFICANT WEATHER AND/OR OBSTRUCTIONS TO VISIBILITY.

NOT ALL STATIONS ARE QUALITY CONTROLLED BY THE NATIONAL
WEATHER SERVICE. USE DATA WITH CAUTION...ESPECIALLY
DEWPOINT OBSERVATIONS.

SCZ027-030-031-034>040-042>050-032200-
...SOUTHEAST SOUTH CAROLINA...

CITY           SKY/WX    TMP DP  RH WIND       PRES   REMARKS
N CHARLESTON   PTSUNNY   78  65  63 NE5       29.96F
WATERFRONT PAR   N/A     77  66  68 CALM      29.94S
MOUNT PLEASANT FAIR      75  70  83 CALM      29.97S
JOHNS ISLAND   PTCLDY    75  66  73 E7        29.96F
PINOPOLIS      NOT AVBL
MONCKS CORNER  MOCLDY    77  66  69 N3        29.97F
SUMMERVILLE    FAIR      77  68  73 N3        29.97S
BEAUFORT MCAS  LGT RAIN  75  68  78 CALM      29.96F
BEAUFORT ARPT  LGT RAIN  73  70  88 CALM      29.96R
HILTON HEAD IS PTSUNNY   75  68  78 NE5       29.95F
WALTERBORO     CLOUDY    73  64  73 CALM      29.98R
ALLENDALE      MOCLDY    75  70  83 CALM      29.96S

...SOUTHERN MIDLANDS AND PEE DEE...

CITY           SKY/WX    TMP DP  RH WIND       PRES   REMARKS
GEORGETOWN     NOT AVBL
KINGSTREE      NOT AVBL
ORANGEBURG     CLOUDY    74  67  78 E7        29.98F
BARNWELL       MOCLDY    79  70  73 SE10      29.97F
AIKEN          FAIR      79  59  50 E8        29.99F
MANNING        FAIR      73  64  73 CALM      29.98F
COLUMBIA       PTSUNNY   79  64  60 NE3       29.97F
SUMTER         CLOUDY    74  64  70 SE7       29.97F
FLORENCE       CLOUDY    76  66  71 E3        29.99F
MYRTLE BEACH   PTSUNNY   75  66  73 E9        30.00S
N MYRTLE BEACH CLOUDY    76  69  79 E5        29.99R

$$

GAZ063-065-086>088-099>101-113>116-118-119-134>141-150-032200-
...SOUTHEAST GEORGIA...

CITY           SKY/WX    TMP DP  RH WIND       PRES   REMARKS
SAVANNAH ARPT  CLOUDY    74  69  85 SE8       29.97R
HUNTER AAF     CLOUDY    73  73 100 N3        29.95R
FORT STEWART   TSTM      68  66  94 N13       29.96R
STATESBORO     CLOUDY    69  32  25 SE5       29.97R
SYLVANIA       LGT RAIN  71  71 100 SE3       29.97F
CLAXTON        FAIR      72  70  94 SE8       29.95F

...CSRA...CENTRAL AND FAR SOUTHEAST GEORGIA...

CITY           SKY/WX    TMP DP  RH WIND       PRES   REMARKS
THOMSON        PTSUNNY   83  69  62 NE6       29.99S
AUGUSTA-BUSH   MOSUNNY   80  66  62 E8        29.93F
AUGUSTA-DANIEL PTSUNNY   82  64  54 E6        29.95F
SWAINSBORO     CLOUDY   N/A N/A N/A E8        29.97S
VIDALIA        PTSUNNY   77  64  65 E9G16     29.95R
EASTMAN        FAIR      73  73 100 N3        29.96R
HAZLEHURST     FAIR      80  69  70 NE6       29.90F
ALMA           PTSUNNY   82  69  64 N6        29.90R
WAYCROSS       TSTM      76  74  94 NW6       29.91R
JESUP            N/A     79  72  78 NE8       29.92R
BAXLEY         FAIR      81  72  74 N9        29.89F
BRUNSWICK      CLOUDY    79  72  78 E6        29.94R
SAINT SIMONS   NOT AVBL

$$

SCZ027-028-034-036>038-045-046-048>050-GAZ119-141-032200-
...LAKE AND SUPPLEMENTAL COASTAL OBSERVATIONS...

STATION/POSITION TIME  TEMP    WIND        PRES    WAVE   SWELL
                       AIR SEA DIR/SP/G            HT/PER HT/PER/DIR
                 (UTC) (F)     (DEG/KT/KT) (MB)    (FT/S) (FT/S/D)
UPR LAKE MARION  NOT AVBL
WINYAH BAY       2000   73     120/  2     1014.0
LAKE MURRAY      2000   73     110/  9/ 13 1014.9F
ACE BASIN NERRS  NOT AVBL
FORT PULASKI     2100   76 81  110/  7/ 11 1014.5R
SAPELO ISLAND    2100   80     110/  9     1014.0S

$$

ANZ835-935-AMZ111-154-330-350-352-354-370-450-454-472-032200-
...C-MAN AND BUOY OBSERVATIONS...

STATION/POSITION TIME  TEMP    WIND        PRES    WAVE   SWELL
                       AIR SEA DIR/SP/G            HT/PER HT/PER/DIR
                 (UTC) (F)     (DEG/KT/KT) (MB)    (FT/S) (FT/S/D)
BUOY 41004       2050   77 80  120/  8/ 10 1014.2S   2/ 8   2/ 8
BUOY 41008       2050   76 79  110/ 19/ 21 1013.4F   3/ 3   2/100/ 8
FOLLY BEACH CMAN 2100   75      90/  6/  8 1014.7F
CAPERS NEARSHORE 2008   76     100/  8/ 10 1014.7F
FRIPP NEARSHORE  2000   76     120/ 10/ 12 1014.4S


STATION/POSITION TIME  TEMP    WIND        PRES    WAVE   SWELL
                       AIR SEA DIR/SP/G            HT/PER HT/PER/DIR
                 (UTC) (F)     (DEG/KT/KT) (MB)    (FT/S) (FT/S/D)
5E ST. MARYS GA  2021      81                N/A     2/ 8
FRYING PAN BUOY  2050   77 77  130/ 14/ 16 1015.1F   3/ 8   2/110/ 8
BUOY 41025       2050   78 82   90/  6/  8 1016.1F   3/ 8   2/100/ 8
CAPE LOOKOUT NC  2100   75      80/  9/ 11 1015.5F
BUOY 41002       2050   78 77  150/ 10/ 12 1016.1F   3/ 9   3/120/ 9
BUOY 41010       2020   78 81  120/ 10/ 14 1014.3F
ST AUGUSTINE FL  2100   78 80  120/ 12/ 13 1014.2F


$$



USA.gov is the U.S. government's official web portal to all federal, state and local government web resources and services.